EW5196 Weather Reports


Display with metric or nautical units.
time (UTC)temp
F
wind
direction
speed
MPH
gust
MPH
rain 1hr
in
rain 24hr
in
rain mn
in
humidity
%
barometer
mb
20260831081143 73 133 0.0 1.0 0.00 0.00 0.00 93 1020.1
20260831080638 73 115 0.0 1.0 0.00 0.00 0.00 94 1020.2
20260831080127 72 139 1.0 2.0 0.00 0.00 0.00 94 1020.1
20260831075624 72 80 0.0 1.0 0.00 0.00 0.00 95 1020.1
20260831075119 72 169 0.0 2.0 0.00 0.00 0.00 95 1020.2
20260831074618 72 151 0.0 0.0 0.00 0.00 0.00 95 1020.2
20260831074113 72 149 0.0 1.0 0.00 0.00 0.00 95 1020.2
20260831073608 72 157 0.0 1.0 0.00 0.00 0.00 94 1020.2
20260831073107 72 136 1.0 1.0 0.00 0.00 0.00 95 1020.2
20260831072602 72 141 1.0 2.0 0.00 0.00 0.00 95 1020.1
20260831072059 72 167 0.0 2.0 0.00 0.00 0.00 95 1020.4
20260831071557 72 159 0.0 1.0 0.00 0.00 0.00 95 1020.3
20260831071053 72 45 0.0 0.0 0.00 0.00 0.00 95 1020.2
20260831070551 72 154 0.0 1.0 0.00 0.00 0.00 95 1020.2
20260831070046 73 159 0.0 2.0 0.00 0.00 0.00 95 1020.6
20260831065544 73 146 0.0 2.0 0.00 0.00 0.00 95 1020.3
20260831065039 73 138 2.0 2.0 0.00 0.00 0.00 95 1020.5
20260831064534 73 92 0.0 1.0 0.00 0.00 0.00 95 1020.3
20260831064029 73 80 0.0 0.0 0.00 0.00 0.00 95 1020.5
20260831063525 73 159 0.0 1.0 0.00 0.00 0.00 95 1020.5
20260831063020 73 129 0.0 2.0 0.00 0.00 0.00 95 1020.6
20260831062514 73 150 1.0 1.0 0.00 0.00 0.00 95 1020.6
20260831062014 73 140 1.0 2.0 0.00 0.00 0.00 95 1020.5
20260831061512 73 146 1.0 2.0 0.00 0.00 0.00 95 1020.4
20260831061008 73 156 1.0 1.0 0.00 0.00 0.00 95 1020.3
20260831060503 73 74 0.0 1.0 0.00 0.00 0.00 95 1020.6
20260831060002 73 85 0.0 1.0 0.00 0.00 0.00 96 1020.6
20260831055457 73 154 0.0 1.0 0.00 0.00 0.00 95 1020.6
20260831054954 73 136 1.0 2.0 0.00 0.00 0.00 95 1020.8
20260831054453 73 148 2.0 2.0 0.00 0.00 0.00 95 1020.7
20260831053953 73 143 0.0 1.0 0.00 0.00 0.00 95 1020.9
20260831053451 73 128 0.0 2.0 0.00 0.00 0.00 95 1020.8
20260831052945 73 143 1.0 2.0 0.00 0.00 0.00 95 1020.9
20260831052439 73 144 1.0 2.0 0.00 0.00 0.00 95 1020.8
20260831051938 73 136 1.0 2.0 0.00 0.00 0.00 94 1020.8
20260831051437 74 146 0.0 1.0 0.00 0.00 0.00 94 1020.9
20260831050932 74 147 1.0 2.0 0.00 0.00 0.00 93 1020.7
20260831050431 74 147 0.0 0.0 0.00 0.00 0.00 93 1020.8
20260831045930 74 147 0.0 0.0 0.00 0.00 0.00 93 1021.0
20260831045429 74 147 0.0 1.0 0.00 0.00 0.00 93 1021.1
20260831044924 74 138 0.0 1.0 0.00 0.00 0.00 92 1021.0
20260831044420 74 157 0.0 0.0 0.00 0.00 0.00 92 1020.9
20260831043915 74 149 0.0 1.0 0.00 0.00 0.00 92 1020.8
20260831043415 74 143 0.0 1.0 0.00 0.00 0.00 92 1021.1
20260831042911 74 125 1.0 2.0 0.00 0.00 0.00 92 1021.0
20260831042410 74 159 0.0 1.0 0.00 0.00 0.00 93 1021.0
20260831041905 74 133 0.0 1.0 0.00 0.00 0.00 93 1021.2
20260831041404 75 162 0.0 1.0 0.00 0.00 0.00 93 1021.3
20260831040859 75 154 0.0 0.0 0.00 0.00 0.00 93 1021.0
20260831040354 75 160 0.0 1.0 0.00 0.00 0.00 93 1021.1
20260831035852 75 119 0.0 0.0 0.00 0.00 0.00 92 1021.2
20260831035351 75 184 0.0 2.0 0.00 0.00 0.00 92 1021.1
20260831034846 75 152 1.0 2.0 0.00 0.00 0.00 91 1021.1
20260831034341 76 140 1.0 2.0 0.00 0.00 0.00 90 1021.1
20260831033836 75 194 0.0 0.0 0.00 0.00 0.00 90 1021.0
20260831033336 76 194 0.0 1.0 0.00 0.00 0.00 90 1021.2
20260831032831 76 184 0.0 1.0 0.00 0.00 0.00 90 1021.0
20260831032325 76 194 0.0 0.0 0.00 0.00 0.00 90 1021.2
20260831031821 75 165 0.0 0.0 0.00 0.00 0.00 90 1021.2
20260831031320 75 165 0.0 0.0 0.00 0.00 0.00 90 1021.3
20260831030816 75 171 0.0 1.0 0.00 0.00 0.00 90 1021.3
20260831030314 75 143 0.0 1.0 0.00 0.00 0.00 90 1021.4
20260831025808 75 147 0.0 1.0 0.00 0.00 0.00 90 1021.2
20260831025306 75 175 1.0 2.0 0.00 0.00 0.00 91 1021.4
20260831024758 75 160 0.0 2.0 0.00 0.00 0.00 92 1021.2
20260831024257 75 179 0.0 1.0 0.00 0.00 0.00 92 1021.3
20260831023756 75 160 0.0 1.0 0.00 0.00 0.00 92 1021.4
20260831023254 75 172 0.0 0.0 0.00 0.00 0.00 92 1021.2
20260831022750 75 152 1.0 1.0 0.00 0.00 0.00 92 1021.2
20260831022249 75 101 0.0 2.0 0.00 0.00 0.00 92 1021.2
20260831021744 75 131 1.0 2.0 0.00 0.00 0.00 92 1021.3
20260831021243 75 172 0.0 2.0 0.00 0.00 0.00 92 1021.4
20260831020740 75 91 0.0 1.0 0.00 0.00 0.00 91 1021.2
20260831020239 75 147 0.0 0.0 0.00 0.00 0.00 91 1021.1
20260831015735 75 147 0.0 1.0 0.00 0.00 0.00 91 1021.2
20260831015230 75 154 0.0 1.0 0.00 0.00 0.00 91 1021.2
20260831014725 75 161 0.0 1.0 0.00 0.00 0.00 91 1021.3
20260831014220 75 163 1.0 2.0 0.00 0.00 0.00 91 1021.3
20260831013717 75 148 0.0 1.0 0.00 0.00 0.00 91 1021.4
20260831013215 76 150 0.0 1.0 0.00 0.00 0.00 91 1021.1
20260831012711 76 172 0.0 1.0 0.00 0.00 0.00 91 1021.1
20260831012206 76 159 1.0 2.0 0.00 0.00 0.00 90 1021.3
20260831011705 76 154 0.0 1.0 0.00 0.00 0.00 89 1021.4
20260831011201 76 184 0.0 1.0 0.00 0.00 0.00 89 1021.3
20260831010657 76 159 0.0 1.0 0.00 0.00 0.00 89 1021.4
20260831010152 76 166 1.0 2.0 0.00 0.00 0.00 89 1021.4
20260831005651 77 184 0.0 1.0 0.00 0.00 0.00 88 1021.1
20260831005147 77 176 0.0 1.0 0.00 0.00 0.00 88 1021.1
20260831004642 77 156 0.0 1.0 0.00 0.00 0.00 88 1020.8
20260831004138 77 152 0.0 1.0 0.00 0.00 0.00 88 1020.9
20260831003634 77 162 1.0 1.0 0.00 0.00 0.00 87 1020.7
20260831003130 77 156 1.0 1.0 0.00 0.00 0.00 86 1020.6
20260831002628 78 149 1.0 2.0 0.00 0.00 0.00 86 1020.7
20260831002124 78 160 1.0 2.0 0.00 0.00 0.00 85 1020.3
20260831001619 78 171 0.0 0.0 0.00 0.00 0.00 84 1020.5
20260831001115 79 184 0.0 0.0 0.00 0.00 0.00 83 1020.4
20260831000612 79 154 0.0 1.0 0.00 0.00 0.00 83 1020.4
20260831000111 79 152 0.0 1.0 0.00 0.00 0.00 82 1020.3
20260830235610 80 165 1.0 2.0 0.00 0.00 0.00 80 1020.4
20260830235105 80 170 0.0 1.0 0.00 0.00 0.00 81 1020.3
20260830234600 81 177 1.0 1.0 0.00 0.00 0.00 80 1020.3
20260830234055 82 174 0.0 0.0 0.00 0.00 0.00 78 1020.2
20260830233550 82 209 0.0 1.0 0.00 0.00 0.00 77 1020.3
20260830233046 82 177 0.0 1.0 0.00 0.00 0.00 77 1020.6
20260830232542 83 159 0.0 0.0 0.00 0.00 0.00 74 1020.6
20260830232038 84 184 0.0 1.0 0.00 0.00 0.00 72 1020.8
20260830231534 84 184 0.0 0.0 0.00 0.00 0.00 70 1020.6
20260830231033 84 156 0.0 0.0 0.00 0.00 0.00 68 1020.6
20260830230528 84 265 0.0 0.0 0.00 0.00 0.00 68 1020.7
20260830230023 85 265 0.0 0.0 0.00 0.00 0.00 67 1020.5
20260830225518 85 172 0.0 1.0 0.00 0.00 0.00 67 1020.6
20260830225017 85 147 0.0 0.0 0.00 0.00 0.00 66 1020.4
20260830224516 86 299 0.0 0.0 0.00 0.00 0.00 64 1020.5
20260830224013 86 248 2.0 3.0 0.00 0.00 0.00 61 1020.6
20260830223510 86 180 0.0 1.0 0.00 0.00 0.00 63 1020.4
20260830223009 86 254 0.0 2.0 0.00 0.00 0.00 63 1020.4
20260830222504 86 147 1.0 1.0 0.00 0.00 0.00 62 1020.4
20260830222000 87 170 0.0 1.0 0.00 0.00 0.00 61 1020.6
20260830221455 87 274 0.0 1.0 0.00 0.00 0.00 61 1020.5
20260830220945 87 133 1.0 2.0 0.00 0.00 0.00 61 1020.6
20260830220445 87 246 0.0 0.0 0.00 0.00 0.00 62 1020.4
20260830215943 87 192 0.0 1.0 0.00 0.00 0.00 62 1020.5
20260830215438 87 178 0.0 1.0 0.00 0.00 0.00 62 1020.4
20260830214933 87 336 0.0 1.0 0.00 0.00 0.00 62 1020.5
20260830214428 87 242 1.0 2.0 0.00 0.00 0.00 62 1020.5
20260830213922 87 174 0.0 2.0 0.00 0.00 0.00 62 1020.4
20260830213418 87 119 0.0 2.0 0.00 0.00 0.00 61 1020.6
20260830212913 87 254 0.0 1.0 0.00 0.00 0.00 60 1020.4
20260830212409 87 270 2.0 2.0 0.00 0.00 0.00 61 1020.4
20260830211908 87 166 3.0 3.0 0.00 0.00 0.00 60 1020.4
20260830211402 87 159 0.0 2.0 0.00 0.00 0.00 63 1020.4
20260830210858 87 156 0.0 2.0 0.00 0.00 0.00 62 1020.1
20260830210357 87 266 0.0 2.0 0.00 0.00 0.00 62 1020.2
20260830205855 88 79 1.0 2.0 0.00 0.00 0.00 61 1020.3
20260830205354 88 134 1.0 2.0 0.00 0.00 0.00 61 1020.3
20260830204850 87 161 1.0 2.0 0.00 0.00 0.00 62 1020.4
20260830204349 87 268 0.0 2.0 0.00 0.00 0.00 62 1020.4
20260830203844 87 156 0.0 1.0 0.00 0.00 0.00 62 1020.6
20260830203341 87 254 1.0 2.0 0.00 0.00 0.00 62 1020.7
20260830202839 87 225 1.0 2.0 0.00 0.00 0.00 62 1020.4
20260830202335 87 139 0.0 2.0 0.00 0.00 0.00 61 1020.6
20260830201830 87 97 1.0 3.0 0.00 0.00 0.00 62 1020.7
20260830201324 87 329 1.0 2.0 0.00 0.00 0.00 61 1020.8
20260830200820 88 35 2.0 3.0 0.00 0.00 0.00 60 1020.8
20260830200319 88 296 1.0 2.0 0.00 0.00 0.00 58 1020.7
20260830195815 89 285 0.0 1.0 0.00 0.00 0.00 58 1020.7
20260830195315 89 249 0.0 2.0 0.00 0.00 0.00 58 1021.0
20260830194813 89 294 1.0 3.0 0.00 0.00 0.00 58 1021.2
20260830194307 89 255 1.0 2.0 0.00 0.00 0.00 56 1021.1
20260830193802 90 168 2.0 2.0 0.00 0.00 0.00 57 1021.4
20260830193301 90 210 0.0 2.0 0.00 0.00 0.00 56 1021.5
20260830192757 89 312 0.0 1.0 0.00 0.00 0.00 58 1021.6
20260830192252 89 286 2.0 4.0 0.00 0.00 0.00 58 1021.8
20260830191748 88 293 3.0 3.0 0.00 0.00 0.00 61 1021.7
20260830191247 89 315 2.0 4.0 0.00 0.00 0.00 58 1021.6
20260830190743 89 241 0.0 3.0 0.00 0.00 0.00 58 1022.1
20260830190238 89 63 1.0 3.0 0.00 0.00 0.00 61 1021.8
20260830185736 88 334 0.0 2.0 0.00 0.00 0.00 60 1021.9
20260830185232 89 214 6.0 7.0 0.00 0.00 0.00 59 1022.2
20260830184731 88 224 2.0 2.0 0.00 0.00 0.00 59 1022.0
20260830184231 88 324 1.0 2.0 0.00 0.00 0.00 62 1022.2
20260830183726 88 9 0.0 3.0 0.00 0.00 0.00 62 1022.5
20260830183221 88 253 3.0 4.0 0.00 0.00 0.00 61 1022.3
20260830182716 87 153 2.0 3.0 0.00 0.00 0.00 62 1022.5
20260830182212 87 210 1.0 3.0 0.00 0.00 0.00 63 1022.5
20260830181708 86 282 0.0 6.0 0.00 0.00 0.00 64 1022.5
20260830181203 87 172 0.0 1.0 0.00 0.00 0.00 65 1022.6
20260830180701 87 345 0.0 3.0 0.00 0.00 0.00 64 1022.8
20260830180156 87 232 0.0 2.0 0.00 0.00 0.00 66 1022.9
20260830175655 87 299 0.0 3.0 0.00 0.00 0.00 62 1023.0
20260830175150 87 145 3.0 3.0 0.00 0.00 0.00 64 1023.1
20260830174646 86 154 0.0 4.0 0.00 0.00 0.00 65 1023.0
20260830174141 86 345 1.0 3.0 0.00 0.00 0.00 66 1023.1
20260830173636 86 98 1.0 3.0 0.00 0.00 0.00 65 1023.1
20260830173131 86 220 0.0 2.0 0.00 0.00 0.00 65 1023.1
20260830172628 86 143 0.0 2.0 0.00 0.00 0.00 65 1023.3
20260830172124 85 166 0.0 3.0 0.00 0.00 0.00 67 1023.3
20260830171624 85 184 0.0 1.0 0.00 0.00 0.00 67 1023.5
20260830171119 84 233 2.0 3.0 0.00 0.00 0.00 67 1023.5
20260830170614 85 329 1.0 4.0 0.00 0.00 0.00 65 1023.4
20260830170113 86 131 2.0 3.0 0.00 0.00 0.00 67 1023.6
20260830165608 85 235 1.0 4.0 0.00 0.00 0.00 66 1023.5
20260830165103 84 159 0.0 2.0 0.00 0.00 0.00 70 1023.6
20260830164559 84 244 0.0 4.0 0.00 0.00 0.00 69 1023.7
20260830164055 84 149 2.0 2.0 0.00 0.00 0.00 68 1023.6
20260830163552 84 124 0.0 5.0 0.00 0.00 0.00 68 1023.6
20260830163051 83 272 0.0 1.0 0.00 0.00 0.00 71 1023.7
20260830162547 83 157 2.0 3.0 0.00 0.00 0.00 71 1024.0
20260830162042 83 152 0.0 2.0 0.00 0.00 0.00 70 1023.7
20260830161536 83 265 2.0 2.0 0.00 0.00 0.00 71 1024.0
20260830161031 84 197 2.0 3.0 0.00 0.00 0.00 71 1023.9
20260830160528 83 53 1.0 3.0 0.00 0.00 0.00 71 1024.0
20260830160023 83 184 0.0 1.0 0.00 0.00 0.00 72 1024.1
20260830155519 83 142 0.0 2.0 0.00 0.00 0.00 73 1024.2
20260830155014 83 59 0.0 3.0 0.00 0.00 0.00 72 1024.4
20260830154509 83 195 1.0 4.0 0.00 0.00 0.00 71 1024.4
20260830154006 83 140 2.0 3.0 0.00 0.00 0.00 72 1024.2
20260830153502 82 10 0.0 1.0 0.00 0.00 0.00 73 1024.5
20260830153001 82 286 0.0 1.0 0.00 0.00 0.00 75 1024.3
20260830152456 82 3 1.0 2.0 0.00 0.00 0.00 73 1024.4
20260830151955 82 11 2.0 3.0 0.00 0.00 0.00 74 1024.3
20260830151454 81 309 0.0 3.0 0.00 0.00 0.00 75 1024.2
20260830150950 81 8 1.0 3.0 0.00 0.00 0.00 78 1024.6
20260830150444 80 294 3.0 3.0 0.00 0.00 0.00 78 1024.1
20260830145943 80 177 0.0 0.0 0.00 0.00 0.00 79 1024.3
20260830145438 80 88 1.0 2.0 0.00 0.00 0.00 79 1024.4
20260830144934 80 252 2.0 2.0 0.00 0.00 0.00 79 1024.3
20260830144431 79 67 0.0 1.0 0.00 0.00 0.00 81 1024.3
20260830143931 79 269 0.0 1.0 0.00 0.00 0.00 80 1024.5
20260830143426 79 167 2.0 2.0 0.00 0.00 0.00 81 1024.4
20260830142925 80 138 1.0 2.0 0.00 0.00 0.00 81 1024.4
20260830142420 80 63 1.0 3.0 0.00 0.00 0.00 83 1024.6
20260830141920 78 249 0.0 1.0 0.00 0.00 0.00 85 1024.6
20260830141416 78 159 0.0 1.0 0.00 0.00 0.00 85 1024.4
20260830140911 78 247 0.0 0.0 0.00 0.00 0.00 85 1024.4
20260830140406 77 11 2.0 2.0 0.00 0.00 0.00 87 1024.3
20260830135905 77 165 0.0 1.0 0.00 0.00 0.00 89 1024.6
20260830135401 77 90 0.0 1.0 0.00 0.00 0.00 89 1024.4
20260830134856 76 119 1.0 1.0 0.00 0.00 0.00 90 1024.6
20260830134351 76 138 2.0 2.0 0.00 0.00 0.00 91 1024.7
20260830133847 76 137 1.0 2.0 0.00 0.00 0.00 91 1024.9
20260830133342 76 151 2.0 3.0 0.00 0.00 0.00 91 1025.3
20260830132837 76 128 2.0 2.0 0.00 0.00 0.00 92 1025.3
20260830132333 75 117 0.0 1.0 0.00 0.00 0.00 94 1025.2
20260830131832 75 139 0.0 1.0 0.00 0.00 0.00 95 1025.0
20260830131327 74 147 2.0 2.0 0.00 0.00 0.00 95 1025.3
20260830130822 74 312 0.0 1.0 0.00 0.00 0.00 96 1025.2
20260830130318 74 153 0.0 2.0 0.00 0.00 0.00 97 1025.3
20260830125816 73 119 0.0 2.0 0.00 0.00 0.00 98 1025.2
20260830125312 73 125 1.0 1.0 0.00 0.00 0.00 98 1025.2
20260830124809 73 119 0.0 2.0 0.00 0.00 0.00 99 1025.3
20260830124305 73 110 1.0 2.0 0.00 0.00 0.00 99 1025.5
20260830123801 72 145 0.0 1.0 0.00 0.00 0.00 99 1025.3
20260830123257 72 132 0.0 1.0 0.00 0.00 0.00 99 1025.5
20260830122755 72 105 0.0 1.0 0.00 0.00 0.00 99 1025.6
20260830122250 72 70 0.0 1.0 0.00 0.00 0.00 99 1025.5
20260830121745 72 135 1.0 2.0 0.00 0.00 0.00 99 1025.2
20260830121244 72 82 0.0 2.0 0.00 0.00 0.00 99 1025.4
20260830120739 72 84 0.0 1.0 0.00 0.00 0.00 99 1025.3
20260830120236 72 152 2.0 2.0 0.00 0.00 0.00 99 1025.3
20260830115732 72 124 0.0 2.0 0.00 0.00 0.00 99 1025.2
20260830115227 71 131 1.0 2.0 0.00 0.00 0.00 99 1025.3
20260830114724 71 85 0.0 1.0 0.00 0.00 0.00 99 1025.3
20260830114218 71 119 1.0 2.0 0.00 0.00 0.00 99 1025.3
20260830113713 71 83 0.0 1.0 0.00 0.00 0.00 99 1025.0
20260830113208 71 132 0.0 1.0 0.00 0.00 0.00 99 1025.1
20260830112704 71 119 1.0 2.0 0.00 0.00 0.00 99 1025.0
20260830112200 71 114 0.0 1.0 0.00 0.00 0.00 99 1025.1
20260830111655 71 133 1.0 3.0 0.00 0.00 0.00 99 1025.2
20260830111151 71 140 0.0 1.0 0.00 0.00 0.00 99 1025.1
20260830110645 71 143 0.0 1.0 0.00 0.00 0.00 99 1025.0
20260830110141 70 162 0.0 0.0 0.00 0.00 0.00 99 1025.0
20260830105635 70 67 0.0 0.0 0.00 0.00 0.00 99 1025.2
20260830105131 70 71 0.0 1.0 0.00 0.00 0.00 99 1025.1
20260830104628 70 159 0.0 0.0 0.00 0.00 0.00 99 1024.9
20260830104125 70 151 1.0 2.0 0.00 0.00 0.00 99 1025.0
20260830103624 70 165 0.0 0.0 0.00 0.00 0.00 99 1025.0
20260830103119 69 141 0.0 2.0 0.00 0.00 0.00 99 1024.8
20260830102618 69 161 1.0 2.0 0.00 0.00 0.00 99 1025.0
20260830102114 69 146 2.0 2.0 0.00 0.00 0.00 99 1024.7
20260830101609 69 140 1.0 2.0 0.00 0.00 0.00 99 1024.8
20260830101109 69 154 0.0 1.0 0.00 0.00 0.00 99 1024.5
20260830100609 69 131 1.0 2.0 0.00 0.00 0.00 99 1024.6
20260830095557 69 183 0.0 0.0 0.00 0.00 0.00 99 1024.6
20260830095053 69 180 0.0 1.0 0.00 0.00 0.00 99 1024.5
20260830094549 69 119 0.0 2.0 0.00 0.00 0.00 99 1024.7
20260830094044 69 143 1.0 2.0 0.00 0.00 0.00 99 1024.3
20260830093539 68 161 0.0 2.0 0.00 0.00 0.00 99 1024.4
20260830093036 68 143 2.0 2.0 0.00 0.00 0.00 99 1024.5
20260830092530 68 141 1.0 2.0 0.00 0.00 0.00 99 1024.5
20260830092027 68 150 1.0 2.0 0.00 0.00 0.00 99 1024.5
20260830091522 68 144 1.0 2.0 0.00 0.00 0.00 99 1024.3
20260830091021 68 162 1.0 2.0 0.00 0.00 0.00 99 1024.5
20260830090516 68 162 0.0 2.0 0.00 0.00 0.00 99 1024.4
20260830090011 68 159 0.0 1.0 0.00 0.00 0.00 99 1024.3
20260830085506 68 139 0.0 1.0 0.00 0.00 0.00 99 1024.2
20260830085002 68 135 1.0 2.0 0.00 0.00 0.00 99 1024.3
20260830084456 68 143 2.0 2.0 0.00 0.00 0.00 99 1024.4
20260830083951 68 160 1.0 1.0 0.00 0.00 0.00 99 1024.5
20260830083447 68 99 0.0 1.0 0.00 0.00 0.00 99 1024.3
20260830082946 68 123 1.0 2.0 0.00 0.00 0.00 99 1024.3
20260830082442 68 138 1.0 2.0 0.00 0.00 0.00 99 1024.4
20260830081936 68 123 1.0 2.0 0.00 0.00 0.00 99 1024.6
20260830081432 68 143 0.0 1.0 0.00 0.00 0.00 99 1024.4